Location: Agadir Irigdalene
(31.2522°N, 8.7797°W)
Time: 18:50:07
(UTC+00:00)

Daily predictions for brighter satellites

Satellite Brightness Start Highest point End
(mag) Time Altitude Azimuth Time Altitude Azimuth Time Altitude Azimuth
MOS 1-B 4.4 17:47:34 10° SSE 17:53:21 90° ENE 17:59:12 10° NNW
Cosmos 1538 Rocket 4.1 17:48:59 10° S 17:54:17 70° ESE 17:59:39 10° NNE
NOAA 12 4.3 17:50:29 10° SSE 17:55:39 54° ENE 18:00:49 10° N
Cosmos 1782 2.9 17:54:25 10° S 17:58:14 53° E 18:02:07 10° NNE
Okean O Rocket 1.8 17:54:53 10° SSE 17:59:04 49° ENE 18:03:17 10° N
Sakura Rocket 3.5 17:57:06 10° WSW 18:00:31 41° SSE 18:04:18 10° E
H-2A R/B 4.5 17:57:46 10° SSW 18:01:19 38° W 18:04:57 10° NNW
Cosmos 2369 Rocket 3.3 17:57:18 10° N 18:01:39 22° ENE 18:05:57 10° ESE
NOAA 6 4.4 17:56:44 10° S 18:01:52 73° WSW 18:07:00 10° NNW
CENTAUR R/B 3.3 17:57:39 10° SSE 18:02:05 26° ESE 18:07:01 10° NE
H-2A R/B 3.0 17:58:24 10° N 18:02:32 50° WNW 18:06:44 10° SSW
Cosmos 1943 Rocket 2.6 17:57:55 10° N 18:03:06 38° ENE 18:08:18 10° SE
Cosmos 1933 4.4 18:00:15 10° SSW 18:04:09 48° W 18:08:05 10° N
Orbus 7S 4.0 18:03:41 10° W 18:08:42 47° S 18:11:21 10° ESE
NOSS 3-2 (C) 4.1 18:05:36 10° S 18:10:10 29° ESE 18:15:06 10° NE
Cosmos 1633 Rocket 3.0 18:07:37 10° N 18:11:59 87° E 18:16:19 10° S
USA 276 3.7 18:13:55 10° S 18:16:28 22° SE 18:18:21 14° E
ERS-2 2.1 18:13:30 10° NNE 18:17:08 68° E 18:20:46 10° S
Envisat 4.2 18:13:00 10° S 18:17:52 46° W 18:22:44 10° NNW
SKYMED 2 3.8 18:14:43 10° NNE 18:18:55 48° E 18:23:05 10° S
YAOGAN 6 4.4 18:18:04 10° SSW 18:21:27 36° W 18:24:49 10° NNW
Hubble Space Telescope 2.6 18:20:55 10° SSW 18:24:04 21° SSE 18:27:05 11° ESE
Meteor 1-25 Rocket 4.4 18:20:05 10° N 18:25:45 78° W 18:31:29 10° S
Cosmos 2218 Rocket 4.0 18:20:21 10° N 18:26:32 89° E 18:32:42 10° S
FALCON 9 R/B 0.9 18:25:14 10° WNW 18:27:19 37° N 18:28:30 22° ENE
Cosmos 2366 rocket 3.9 18:21:13 10° N 18:27:24 87° E 18:33:32 10° S
ATLAS 3B CENTAUR R/B 2.0 18:32:05 10° WSW 18:33:27 17° SSW 18:34:38 12° SSE
FengYun 1-2 T 4.2 18:28:29 10° SSE 18:34:01 87° E 18:39:34 10° NNW
Feng Yun 1-1 Rocket 4.4 18:28:53 10° SSE 18:34:31 56° ENE 18:40:01 10° N
CZ-4B R/B 2.4 18:32:05 10° N 18:35:05 43° WNW 18:38:09 10° SSW
NOSS 3-2 (A) 3.2 18:29:50 10° SSW 18:35:15 86° WNW 18:41:18 10° NNE
SMAP 4.3 18:35:02 10° S 18:39:28 45° W 18:43:56 10° NNW
Cosmos 1500 3.4 18:41:37 10° N 18:45:17 43° E 18:48:57 10° SSE
USA 215 3.5 18:46:42 13° NE 18:52:36 67° NW 18:59:03 10° SW
USA 238 DEB 3.8 18:47:55 10° SW 18:54:24 74° WNW 19:00:35 13° NNE
USA 238 3.7 18:48:00 10° SW 18:54:30 75° WNW 19:00:39 13° NNE
Cosmos 1470 Rocket 4.4 18:50:18 10° NNW 18:54:30 52° W 18:58:41 10° S
SL-24 DEB 4.4 18:49:57 10° N 18:54:40 78° W 18:59:18 10° S
Cosmos 158 Rocket 4.0 18:50:49 10° SSW 18:55:48 73° WNW 19:00:43 10° NNE
Cosmos 1656 Rocket 4.1 18:51:46 10° N 18:56:53 35° ENE 18:58:59 26° ESE
CZ-2C R/B 3.2 18:52:55 10° SE 18:57:45 45° ENE 19:02:22 10° N
MOS 1 Rocket 3.6 18:53:26 10° NNE 18:58:49 64° E 19:04:00 10° S
Cosmos 923 Rocket 4.3 18:54:33 10° SSW 18:59:41 66° WNW 19:04:52 10° N
Cosmos 1689 Rocket 2.9 19:00:59 22° N 19:02:33 49° WNW 19:05:23 10° SSW
Cosmos 2263 4.1 19:00:50 10° NNW 19:06:21 59° ENE 19:11:51 10° SSE
Cosmos 2228 Rocket 3.6 19:01:56 10° SSW 19:06:26 62° W 19:10:55 10° N
COSMO-SKYMED 1 3.8 19:02:49 10° N 19:06:53 41° WNW 19:10:57 10° SW
Cosmos 1812 3.5 19:04:15 10° SSW 19:07:59 50° W 19:11:42 10° N
Cosmos 1238 Rocket 3.2 19:04:04 10° N 19:08:28 63° E 19:13:48 10° SSE
USA 281 3.5 19:04:01 10° SE 19:10:06 42° ENE 19:16:11 10° N
Nadezhda 3 Rocket 4.3 19:03:48 10° SSW 19:10:07 72° W 19:16:30 10° N
Cosmos 1939 Rocket 3.6 19:06:31 10° S 19:10:16 52° W 19:14:05 10° NNW
Cosmos 1707 Rocket 4.0 19:06:04 10° SSE 19:09:40 43° ESE 19:09:40 43° ESE
Cosmos 1934 Rocket 4.2 19:05:18 10° N 19:11:17 43° E 19:17:10 10° SSE
H-2A R/B 3.7 19:07:11 10° SE 19:15:55 15° N 19:16:55 10° N
CZ-4 R/B 4.4 19:08:25 10° S 19:12:33 83° WSW 19:16:42 10° NNW
CZ-4 R/B 2.2 19:08:45 10° SSE 19:17:28 - N 19:11:05 34° SE
SL-8 R/B 3.6 19:09:35 10° SW 19:14:21 88° SE 19:15:22 55° NE
Cosmos 2084 3.8 19:10:31 10° SW 19:14:42 62° WNW 19:16:08 38° N
IRS-1C Rocket 4.4 19:16:09 10° S 19:21:22 67° WSW 19:26:38 10° NNW
Lacrosse 4 Rocket 1.8 19:18:31 10° SW 19:22:29 57° WNW 19:23:21 45° NNW
ATLAS 3B R/B 3.5 19:20:31 10° S 19:24:48 28° SE 19:24:48 28° SE
CZ-2D R/B 4.2 19:22:53 10° S 19:26:33 47° W 19:30:15 10° NNW
Cosmos 1680 Rocket 4.4 19:21:30 10° SW 19:26:33 48° WNW 19:30:41 15° N
Cosmos 1821 Rocket 4.2 19:21:01 10° N 19:27:16 74° W 19:33:36 10° S
Meteor 1-11 Rocket 3.7 19:22:26 10° N 19:28:15 66° E 19:34:08 10° SSE
Okean-O 2.9 19:32:39 10° S 19:37:02 64° W 19:41:25 10° NNW
Cosmos 1461 4.5 19:33:36 10° SW 19:37:45 35° WNW 19:39:08 29° NNW
Cosmos 2369 Rocket 3.4 19:40:31 10° NW 19:45:45 40° WSW 19:50:56 10° S
Cosmos 1437 Rocket 4.5 19:46:53 10° SW 19:50:27 31° WNW 19:50:35 31° WNW
CENTAUR R/B 3.5 19:47:04 10° WSW 19:52:17 38° NW 19:54:58 26° N
Sakura Rocket 4.4 19:50:13 10° W 19:52:27 34° WSW 19:52:27 34° WSW
CZ-2C R/B 4.4 20:02:18 21° S 20:02:18 21° S 20:03:56 10° S
Hubble Space Telescope 3.2 20:00:56 10° WSW 20:02:24 20° WSW 20:02:24 20° WSW
H-2A R/B (2) 3.6 19:58:16 10° W 20:15:29 43° SW 20:16:30 40° S
Cosmos 2344 4.3 20:23:38 10° SSW 20:28:40 42° SSW 20:28:40 42° SSW
